Weather in Predeal

Romania     45°30′02″N   25°34′26″E
temp.,
°C
wind,
m/s
gust,
m/s
humid.,
%
clouds,
%
prec.,
mm/h
press.,
hPa
HPBL,
m
23 april, fri
fri2300:00+3w009791 0.1 102014
03:00+3ssw2286100 0.1 101828
06:00+3ssw2287100 0.0 101831
09:00+6w1277100 0.2 1017246
12:00+7n228295 1.5 1018792
15:00+1nnw1299100 5.8 1021105
18:00+4nnw468568 0.4 1020888
21:00+1n379240 0.5 1023503
24 april, sat
sat2400:00−2w019520 0.0 102639
03:00−2wnw01865 0.0 102620
06:00−3sw01907 0.0 102517
09:00+3nnw11748 0.0 1025593
12:00+7n225464 0.0 10231389
15:00+9n2249100 0.1 10201604
18:00+7nw116197 0.1 10211129
21:00+3sw1188100 0.2 102223
25 april, sun
sun2500:00+2s229166 0.0 102330
03:00+3ssw227953 0.0 102132
06:00+1ssw22837 0.0 102122
09:00+6w116225 0.0 1019854
12:00+9nw1254100 0.1 10181586
15:00+7nnw117292 0.4 1018860
18:00+6nw228599 1.2 1018634
21:00+3sw229451 1.6 101931
26 april, mon
mon2600:00+3n129897 0.2 1020257
03:00+2nw129973 0.2 101976
06:00+2n229999 0.1 1019200
09:00+2nnw2293100 0.3 1020512
12:00+4n118493 0.1 1020622
15:00+10sw1454100 0.4 10151744
18:00+4wnw1290100 1.6 1016675
21:00+3se1299100 3.6 1017153
27 april, tue
tue2700:00+3ssw1498100 0.2 1016272
03:00+3wnw1299100 0.8 1015210
06:00+2n3499100 0.7 1015302
09:00+2n229997 0.9 1017172
12:00+7n1165100 0.0 1016810
15:00+9s3364100 0.1 10131160
18:00+6sse4683100 0.1 1014686
21:00+3s4788100 0.1 1015363